Regional Weather Roundup
Issued by NWS

Home | Current Version | Previous Version | Graphics & Text | Print | Product List | Glossary On
Versions: 1 2 3 4 5 6 7 8 9 10 11 12 13 14 15 16 17 18 19 20 21 22 23 24 25 26 27 28 29 30
000
ASUS45 KGTF 172110
RWRMT
MONTANA HOURLY WEATHER ROUNDUP
NATIONAL WEATHER SERVICE GREAT FALLS MT
300 PM MDT FRI APR 17 2015

NOTE: "FAIR" INDICATES FEW OR NO CLOUDS BELOW 12000 FEET WITH NO
SIGNIFICANT WEATHER AND/OR OBSTRUCTIONS TO VISIBILITY.

MTZ001>007-043-172200-
WEST OF THE DIVIDE

CITY           SKY/WX    TMP DP  RH WIND       PRES   REMARKS
KALISPELL      CLEAR     65  30  27 S14       30.07F
MISSOULA       SUNNY     66  30  26 SE6       30.09F
BUTTE          SUNNY     59  22  24 VRB6      30.13F
DEER LODGE       N/A     64  23  20 SE3       30.13F
EUREKA           N/A     68  30  24 CALM      30.05F
HAMILTON         N/A     68  25  19 CALM      30.08F
LIBBY            N/A     68  30  24 N5        30.07F
$$

MTZ008-052>055-172200-
SOUTHWEST MONTANA

CITY           SKY/WX    TMP DP  RH WIND       PRES   REMARKS
BOZEMAN        SUNNY     60  30  32 VRB3      30.12F
DILLON         SUNNY     59  19  21 W5        30.12F
$$

MTZ009-010-012-014-046-048-049-054-172200-
EAST SLOPES AND CENTRAL MONTANA

CITY           SKY/WX    TMP DP  RH WIND       PRES   REMARKS
CUT BANK       SUNNY     66  27  23 SW10G25   30.03F
GREAT FALLS    SUNNY     66  27  23 W8        30.06F
MALMSTROM AFB  SUNNY     64  28  25 SW6G15    30.07F
HELENA         SUNNY     65  27  23 E5        30.10F
$$

MTZ011-013-016-021-045-047-050-051-172200-
NORTH CENTRAL MONTANA

CITY           SKY/WX    TMP DP  RH WIND       PRES   REMARKS
HAVRE          SUNNY     70  31  23 SW17      30.05F
LEWISTOWN      SUNNY     66  31  27 SE12      30.09F
FORT BENTON      N/A     70  28  21 S8        30.07F
$$

MTZ017>020-022>042-056>058-061-062-172200-
EASTERN PLAINS

CITY           SKY/WX    TMP DP  RH WIND       PRES   REMARKS
BAKER          MOSUNNY   66  30  26 CALM      30.13F
BILLINGS       SUNNY     63  23  21 VRB3      30.11F
GLASGOW        SUNNY     68  24  19 SE5       30.09F
JORDAN           N/A     69  23  17 E12       30.09F
LIVINGSTON     SUNNY     64   9  11 E9        30.10F
MILES CITY     SUNNY     67  30  25 CALM      30.10F
SIDNEY         SUNNY     70  27  19 N7        30.11F
WOLF POINT     SUNNY     71  28  20 CALM      30.09F
BIG TIMBER       N/A     63  16  16 E3        30.11F
FORSYTH          N/A     66  34  30 SE6       30.09F
PLENTYWOOD       N/A     64  27  24 E9G20     30.12F
POPLAR           N/A     70  27  19 E7        30.09F
$$

REGIONAL REPORTS...DAKOTAS

CITY           SKY/WX    TMP DP  RH WIND       PRES   REMARKS
WILLISTON      SUNNY     71  24  17 N7        30.10F
MINOT          SUNNY     70  27  20 N13G23    30.09F
DICKINSON      MOSUNNY   69  19  15 N8        30.10F
BEACH          FAIR      64  23  20 SE6       30.12F
CROSBY         FAIR      64  23  20 NE8       30.15S
WATFORD CITY   FAIR      68  25  19 N10       30.09F
BISMARCK       MOSUNNY   72  24  16 N9        30.09F
GRAND FORKS    SUNNY     76  26  15 NW20G29   29.99F
FARGO          SUNNY     76  17  11 W16G24    30.03F
RAPID CITY     CLOUDY    58  30  34 E8        30.14F
$$

REGIONAL REPORTS...WYOMING/IDAHO/WASHINGTON

CITY           SKY/WX    TMP DP  RH WIND       PRES   REMARKS
GILLETTE       PTSUNNY   61  34  36 N10       30.12F
SHERIDAN       SUNNY     61  31  32 CALM      30.12F
BUFFALO WY     MOSUNNY   59  30  33 VRB3      30.14F
CODY           SUNNY     55  28  35 N7        30.14F
YELLOWSTONE LA   N/A     50  13  22 E5        30.18F
IDAHO FALLS    SUNNY     65  19  17 VRB3      30.08F
SALMON         SUNNY     64  23  20 CALM      30.07F
BOISE          SUNNY     68  29  23 W10       30.11F
SPOKANE        MOSUNNY   65  34  31 W7G16     30.13F
$$

REGIONAL REPORTS...ALBERTA

CITY           SKY/WX    TMP DP  RH WIND       PRES   REMARKS
EDMONTON       MOSUNNY   59  27  29 S12       29.90F
CALGARY        PTSUNNY   70  28  21 S12G21    29.91F
LETHBRIDGE     MOSUNNY   68  30  24 W7        29.98F
MEDICINE HAT   MOSUNNY   72  30  21 S13G23    30.00F
$$

REGIONAL REPORTS...SASKATCHEWAN

CITY           SKY/WX    TMP DP  RH WIND       PRES   REMARKS
SWIFT CURRENT  SUNNY     64  25  22 SE10G25   30.08F
REGINA         MOSUNNY   61  25  25 NW6       30.15F
SASKATOON      MOSUNNY   61  16  17 VRB8      30.14F
$$



USA.gov is the U.S. government's official web portal to all federal, state and local government web resources and services.